Austin, TX

10:12 PM CST on January 18, 2018 (GMT -0600)
Austin

Weather History for KATT - August, 2013

Change the Weather History Date:

Tuesday, August 6, 2013

  Actual Average Record
Temperature  
Mean Temperature 91 °F 86 °F  
Max Temperature 105 °F 98 °F 105 °F (1923)
Min Temperature 77 °F 75 °F 68 °F (1949)
Degree Days  
Heating Degree Days 0 0  
Month to date heating degree days 0 0  
Since 1 June heating degree days 0 0  
Since 1 July heating degree days 0 0  
Cooling Degree Days 26 21  
Month to date cooling degree days 151 126  
Year to date cooling degree days 2036 1875  
Since 1 June cooling degree days 1412 1262  
Growing Degree Days 40 (Base 50)    
Moisture  
Dew Point 68 °F    
Average Humidity 53    
Maximum Humidity 82    
Minimum Humidity 24    
Precipitation  
Precipitation 0.00 in 0.06 in 1.25 in (1920)
Month to date precipitation 0.00 0.36  
Year to date precipitation 17.51 20.10  
Snow  
Snow 0.00 in - - ()
Month to date snowfall 0.0  
Since 1 June snowfall 0.0  
Since 1 July snowfall 0.0  
Snow Depth 0.00 in    
Sea Level Pressure  
Sea Level Pressure 29.88 in    
Wind  
Wind Speed 8 mph (South)    
Max Wind Speed 15 mph    
Max Gust Speed 23 mph    
Visibility 10 miles    
Events      
T = Trace of Precipitation, MM = Missing Value Source: NWS Daily Summary

Daily Weather History Graph

Daily Weather History Graph

Search for Another Location

Airport or City:

Trip Planner

Search our weather history database for the weather conditions in past years. The results will help you decide how hot, cold, wet, or windy it might be!

Date:

Astronomy

Aug. 06, 2013 Rise Set
Actual Time 6:52 AM CDT 8:20 PM CDT
Civil Twilight 6:27 AM CDT 8:46 PM CDT
Nautical Twilight 5:56 AM CDT 9:17 PM CDT
Astronomical Twilight 5:24 AM CDT 9:49 PM CDT
Moon 6:41 AM CDT (8/6) 8:02 PM CDT (8/6)
Length of Visible Light 14h 19m
Length of Day
13h 27m
Waning Crescent, 0% of the Moon is Illuminated
Aug 6
Waning Crescent
Aug 6
New
Aug 14
First Quarter
Aug 20
Full
Aug 28
Last Quarter

Hourly Weather History & Observations

Time (CDT) Temp. Heat Index Dew Point Humidity Pressure Visibility Wind Dir Wind Speed Gust Speed Precip Events Conditions
12:51 AM 82.9 °F 86.5 °F 69.1 °F 63% 29.90 in 10.0 mi South 6.9 mph 16.1 mph N/A   Clear
1:51 AM 82.0 °F 85.5 °F 69.1 °F 65% 29.90 in 10.0 mi South 8.1 mph - N/A   Clear
2:51 AM 80.1 °F 83.2 °F 70.0 °F 71% 29.89 in 10.0 mi Variable 6.9 mph - N/A   Clear
3:51 AM 79.0 °F - 71.1 °F 77% 29.90 in 10.0 mi South 4.6 mph - N/A   Clear
4:51 AM 78.1 °F - 71.1 °F 79% 29.90 in 10.0 mi South 5.8 mph - N/A   Clear
5:51 AM 77.0 °F - 71.1 °F 82% 29.91 in 10.0 mi South 6.9 mph - N/A   Clear
6:51 AM 77.0 °F - 71.1 °F 82% 29.91 in 10.0 mi South 3.5 mph - N/A   Clear
7:51 AM 78.1 °F - 72.0 °F 81% 29.93 in 10.0 mi Variable 4.6 mph - N/A   Clear
8:26 AM 80.1 °F 83.8 °F 72.0 °F 76% 29.98 in 10.0 mi Variable 4.6 mph - N/A   Mostly Cloudy
8:51 AM 80.1 °F 83.8 °F 72.0 °F 76% 29.93 in 10.0 mi SSW 6.9 mph - N/A   Overcast
9:51 AM 86.0 °F 91.5 °F 71.1 °F 61% 29.93 in 10.0 mi Variable 6.9 mph 21.9 mph N/A   Mostly Cloudy
10:30 AM 88.0 °F 93.8 °F 71.1 °F 57% 29.97 in 10.0 mi Variable 5.8 mph - N/A   Scattered Clouds
10:51 AM 90.0 °F 96.4 °F 71.1 °F 54% 29.93 in 10.0 mi SSW 6.9 mph - N/A   Partly Cloudy
11:51 AM 91.9 °F 97.4 °F 70.0 °F 48% 29.92 in 10.0 mi South 8.1 mph 17.3 mph N/A   Clear
12:51 PM 98.1 °F 104.4 °F 69.1 °F 39% 29.90 in 10.0 mi SSE 9.2 mph - N/A   Clear
1:51 PM 100.0 °F 104.2 °F 66.0 °F 33% 29.87 in 10.0 mi South 8.1 mph 16.1 mph N/A   Clear
2:51 PM 100.9 °F 104.6 °F 64.9 °F 31% 29.85 in 10.0 mi SSE 8.1 mph 18.4 mph N/A   Clear
3:51 PM 102.9 °F 105.5 °F 63.0 °F 27% 29.82 in 10.0 mi SSE 11.5 mph - N/A   Clear
4:51 PM 104.0 °F 105.3 °F 61.0 °F 24% 29.79 in 10.0 mi SSE 10.4 mph 19.6 mph N/A   Clear
5:51 PM 104.0 °F 105.3 °F 60.1 °F 24% 29.78 in 10.0 mi South 6.9 mph - N/A   Clear
6:51 PM 100.9 °F 100.5 °F 57.9 °F 24% 29.77 in 10.0 mi South 11.5 mph 18.4 mph N/A   Clear
7:51 PM 98.1 °F 97.7 °F 59.0 °F 27% 29.77 in 10.0 mi SSW 5.8 mph - N/A   Clear
8:51 PM 95.0 °F 97.9 °F 66.0 °F 38% 29.79 in 10.0 mi Variable 6.9 mph 17.3 mph N/A   Clear
9:51 PM 91.9 °F 97.4 °F 70.0 °F 48% 29.81 in 10.0 mi South 8.1 mph 20.7 mph N/A   Clear
10:51 PM 89.1 °F 94.1 °F 70.0 °F 53% 29.86 in 10.0 mi South 10.4 mph 20.7 mph N/A   Clear
11:51 PM 86.0 °F 90.7 °F 70.0 °F 59% 29.88 in 10.0 mi Variable 5.8 mph 20.7 mph N/A   Clear